Regional Weather Roundup
Issued by NWS State College, PA

Home | Current Version | Previous Version | Text Only | Print | Product List | Glossary On
Versions: 1 2 3 4 5 6 7 8 9 10 11 12 13 14 15 16 17 18 19 20 21 22 23 24 25 26 27 28 29 30 31 32 33 34 35 36 37 38 39 40 41 42 43 44 45 46 47 48 49 50
000
ASUS41 KCTP 241310
RWRCTP

REGIONAL WEATHER ROUNDUP
NATIONAL WEATHER SERVICE STATE COLLEGE PA
900 AM EDT WED AUG 24 2016

Note: "fair" indicates few or no clouds below 12,000 feet with no
significant weather and/or obstructions to visibility.

* = STATION THAT DOES NOT REPORT PRECIPITATION /E.G. RAIN...SNOW...ETC/
    THUNDER OR FOG.

PAZ002>004-007>009-013>016-020>023-029>032-241400-
WESTERN PENNSYLVANIA

CITY           SKY/WX    TMP DP  RH WIND       PRES   REMARKS
ERIE           SUNNY     71  60  68 S12       30.22F
MEADVILLE      SUNNY     68  58  70 S6        30.26F
FRANKLIN*      SUNNY     64  57  77 S6        30.29S
NEW CASTLE     FAIR      64  61  90 CALM      30.27S
BEAVER COUNTY  SUNNY     68  63  83 SE3       30.27R
BUTLER*        NOT AVBL
PITTSBURGH INT PTSUNNY   68  61  78 SE3       30.26R
PITTSBURGH     MOSUNNY   68  62  81 SE6       30.26S
INDIANA*       SUNNY     72  64  78 CALM      30.31S
LATROBE        SUNNY     66  64  94 CALM      30.28S
WASHINGTON CO* MOSUNNY   66  61  82 CALM      30.28R
$$

PAZ004>006-010>012-017>019-024>028-033>037-041-042-045-046-049>053-241400-
CENTRAL PENNSYLVANIA

CITY           SKY/WX    TMP DP  RH WIND       PRES   REMARKS
BRADFORD       SUNNY     64  60  87 CALM      30.32R
DUBOIS         SUNNY     66  59  78 E5        30.30R
CLEARFIELD     SUNNY     61  59  93 CALM      30.32S
JOHNSTOWN      SUNNY     68  62  81 S7        30.32F
ALTOONA        SUNNY     68  64  87 CALM      30.32S
STATE COLLEGE  SUNNY     63  61  94 CALM      30.32S
WILLIAMSPORT   MOSUNNY   62  59  90 CALM      30.30F
SELINSGROVE    MOSUNNY   64  64 100 CALM      30.31F FOG
FT INDIANTOWN  SUNNY     69  61  76 CALM      30.31S
CAPITAL CITY   SUNNY     70  62  76 CALM      30.30F
HARRISBURG     SUNNY     71  64  78 SE5       30.30S
YORK           SUNNY     70  60  70 CALM      30.31S
$$

PAZ038>040-043-044-047-048-054-055-060>062-067>071-241400-
EASTERN PENNSYLVANIA

CITY           SKY/WX    TMP DP  RH WIND       PRES   REMARKS
SCRANTON       SUNNY     67  58  72 CALM      30.32S
MOUNT POCONO   SUNNY     68  59  73 W7        30.35S
ALLENTOWN      SUNNY     69  61  75 CALM      30.32S
QUAKERTOWN*    SUNNY     70  61  73 CALM      30.33S
READING        SUNNY     70  60  70 CALM      30.30F
LANCASTER      SUNNY     68  64  87 CALM      30.31F
COATESVILLE    SUNNY     72  61  68 W6        30.33S
POTTSTOWN      SUNNY     69  60  73 CALM      30.33S
BLUE BELL      SUNNY     70  61  73 CALM      30.31S
DOYLESTOWN     SUNNY     74  62  66 W3        30.31S
WILLOW GROVE   NOT AVBL
NORTH PHILA    SUNNY     75  64  68 W6        30.32F
PHILADELPHIA   MOSUNNY   74  62  66 W6        30.31S
$$




USA.gov is the U.S. government's official web portal to all federal, state and local government web resources and services.